{"data":{"norad_id":62833,"intl_designator":"2025-019E","name":"STARLINK-11554 [DTC]","alt_names":[],"object_type":"PAYLOAD","status":"ACTIVE","operator":null,"country":"US","launch_date":"2025-01-27","launch_site_code":"AFETR","launch_vehicle":null,"mission":null,"orbit_class":"UNKNOWN","rcs_meters":null,"size_class":null,"mass_kg":null,"dimensions":null,"purposes":["comms"],"wikipedia_slug":null,"has_3d_model":false,"image_url":null,"decayed_at":null,"tle_current":{"epoch":"2026-05-25T04:00:03.998880Z","epoch_age_seconds":53800,"freshness":"FRESH","line1":"1 62833U 25019E   26145.16671295  .00027476  00000+0  21716-3 0  9999","line2":"2 62833  43.0009 205.3096 0001474 256.7540 159.0658 15.70812347  5984","mean_motion":15.70812347,"eccentricity":0.0001474,"inclination_deg":43.0009,"raan_deg":205.3096,"arg_perigee_deg":256.754,"mean_anomaly_deg":159.0658,"bstar":0.00021716,"rev_number":598,"period_min":91.672312275249,"perigee_km":355.58140376124,"apogee_km":357.56679659357,"semimajor_km":6734.7111001774,"source":"CELESTRAK","updated_at":"2026-05-25T13:38:19.778729Z"}}}